Regional Weather Roundup
Issued by NWS Little Rock, AR

Home | Current Version | Previous Version | Text Only | Print | Product List | Glossary On
Versions: 1 2 3 4 5 6 7 8 9 10 11 12 13 14 15 16 17 18 19 20 21 22 23 24 25 26 27 28 29 30 31 32 33 34 35 36 37 38 39 40 41 42 43 44 45 46 47 48 49 50
000
ASUS44 KLZK 190012
RWRLZK

WEATHER ROUNDUP FOR ARKANSAS
NATIONAL WEATHER SERVICE LITTLE ROCK AR
600 PM CST THU JAN 18 2018

NOTE: "FAIR" INDICATES FEW OR NO CLOUDS BELOW 12,000 FEET WITH NO
SIGNIFICANT WEATHER AND/OR OBSTRUCTIONS TO VISIBILITY.

ARZ001-003-010-029-190100-
NORTHWEST ARKANSAS

CITY           SKY/WX    TMP DP  RH WIND       PRES   REMARKS
FAYETTEVILLE   CLEAR     35   8  32 S12       30.23F WCI  27
6HR MIN TEMP:  34; 6HR MAX TEMP:  43;

FORT SMITH     CLEAR     42   4  20 S3        30.29F
6HR MIN TEMP:  35; 6HR MAX TEMP:  47;

HARRISON       CLEAR     39   3  22 S9        30.22F
6HR MIN TEMP:  39; 6HR MAX TEMP:  48;

BENTONVILLE    CLEAR     37  10  32 S10       30.24F
6HR MIN TEMP:  36; 6HR MAX TEMP:  44;

ROGERS         CLEAR     36  10  34 S8        30.23S
6HR MIN TEMP:  36; 6HR MAX TEMP:  44;

SILOAM SPGS    CLEAR     37   9  31 S9        30.22F
6HR MIN TEMP:  36; 6HR MAX TEMP:  44;

HIGHFILL       CLEAR     36  10  34 S10       30.21F
6HR MIN TEMP:  36; 6HR MAX TEMP:  44;

SPRINGDALE     CLEAR     36   7  30 S12G17    30.23F
$$

ARZ004-005-016-190100-
NORTH CENTRAL ARKANSAS

CITY           SKY/WX    TMP DP  RH WIND       PRES   REMARKS
FLIPPIN        CLEAR     40   5  23 S5        30.26F
6HR MIN TEMP:  35; 6HR MAX TEMP:  48;

MTN HOME       CLEAR     38   7  27 SW8       30.23F
6HR MIN TEMP:  32; 6HR MAX TEMP:  45; 6HR PCP: TRACE;

$$

ARZ040-041-190100-
WEST CENTRAL ARKANSAS

CITY           SKY/WX    TMP DP  RH WIND       PRES   REMARKS
MENA           CLEAR     37   9  30 CALM      30.31F
MOUNT IDA      CLEAR     38  10  31 VRB3      30.31S
6HR MIN TEMP:  37; 6HR MAX TEMP:  46;

$$

ARZ009-017-025-026-028-190100-
NORTHEAST ARKANSAS

CITY           SKY/WX    TMP DP  RH WIND       PRES   REMARKS
JONESBORO      FAIR      30  19  63 S13       30.36F WCI  20
6HR MIN TEMP:  30; 6HR MAX TEMP:  34;

NEWPORT        FAIR      30  20  66 S12       30.36R WCI  20
6HR MIN TEMP:  30; 6HR MAX TEMP:  37;

WALNUT RIDGE   FAIR      29  23  78 S13       30.34S WCI  19
6HR MIN TEMP:  29; 6HR MAX TEMP:  36;

BLYTHEVILLE    FAIR      27  18  69 SW10      30.38S WCI  17
6HR MIN TEMP:  24; 6HR MAX TEMP:  30;

$$

ARZ022-023-033-042-044-190100-
CENTRAL ARKANSAS

CITY           SKY/WX    TMP DP  RH WIND       PRES   REMARKS
LITTLE ROCK    CLEAR     32  13  45 S8        30.37S WCI  25
6HR MIN TEMP:  32; 6HR MAX TEMP:  41;

N LITTLE ROCK    N/A     35  15  42 S6        30.33  WCI  30
6HR MIN TEMP:  34; 6HR MAX TEMP:  40;

JACKSONVILLE   CLEAR     32  19  60 S8        30.35F WCI  24
6HR MIN TEMP:  31; 6HR MAX TEMP:  42;

SEARCY         FAIR      29  20  69 S3        30.37F
6HR MIN TEMP:  29; 6HR MAX TEMP:  41;

HOT SPRINGS    CLEAR     37  11  34 S3        30.36S
6HR MIN TEMP:  36; 6HR MAX TEMP:  43;

RUSSELLVILLE   CLEAR     35  11  36 SE3       30.31S
6HR MIN TEMP:  33; 6HR MAX TEMP:  44;

CLINTON        FAIR      28  14  54 CALM      30.32S
$$

ARZ036-190100-
EAST ARKANSAS

CITY           SKY/WX    TMP DP  RH WIND       PRES   REMARKS
WEST MEMPHIS   FAIR      27  20  75 S9        30.39F WCI  18
6HR MIN TEMP:  27; 6HR MAX TEMP:  32;

$$

ARZ050-053-066-070-073-190100-
SOUTHWEST ARKANSAS

CITY           SKY/WX    TMP DP  RH WIND       PRES   REMARKS
ARKADELPHIA    FAIR      32  22  66 CALM      30.40S
6HR MIN TEMP:  32; 6HR MAX TEMP:  41;

CAMDEN         FAIR      36  12  38 CALM      30.40S
TEXARKANA      CLEAR     34  17  50 SE7       30.37F WCI  28
6HR MIN TEMP:  33; 6HR MAX TEMP:  41;

EL DORADO      FAIR      33  21  61 CALM      30.39F
6HR MIN TEMP:  33; 6HR MAX TEMP:  42;

DE QUEEN       CLEAR     37  10  32 S3        30.35S
6HR MIN TEMP:  34; 6HR MAX TEMP:  44;

$$

ARZ056-057-069-190100-
SOUTHEAST ARKANSAS

CITY           SKY/WX    TMP DP  RH WIND       PRES   REMARKS
PINE BLUFF     FAIR      31  26  82 SE8       30.39F WCI  23
6HR MIN TEMP:  31; 6HR MAX TEMP:  39;

STUTTGART      FAIR      30  22  72 SE8       30.39F WCI  22
6HR MIN TEMP:  30; 6HR MAX TEMP:  36;

MONTICELLO     FAIR      34  18  52 SE5       30.40F WCI  30
6HR MIN TEMP:  34; 6HR MAX TEMP:  42;


$$





USA.gov is the U.S. government's official web portal to all federal, state and local government web resources and services.